Location: doobydoo
(53.3403°N, 2.6908°W)
Time: 19:24:38
(UTC+00:00)

ISS - Pass Details

Date: 23 November 2021
Orbit: 413 x 422 km, 51.6° (Epoch: 18 January)

Event Time Altitude Azimuth Distance (km) Brightness Sun altitude
Rises 17:22:55 0° 213° (SSW) 2,376 1.0 -11.4°
Reaches altitude 10° 17:25:23 10° 195° (SSW) 1,512 -0.5 -11.7°
Maximum altitude 17:27:55 20° 147° (SSE) 1,054 -1.9 -12.1°
Enters shadow 17:29:32 15° 111° (ESE) 1,260 -1.8 -12.3°
